219P/LINEAR (2003)

Japanese version
Home page
Updated on April 25, 2009

---------------------------------------------------------------------

* Profile

Designation 219P/2002 LZ11
Discovery Date June 5, 2002
Magnitude 18.1 mag
Discoverer Lincoln Laboratory Near-Earth Asteroid Research project

* Orbital Elements

                    Epoch = 2003 Mar. 22.0 TT
     T = 2003 Mar. 15.65648 TT        Peri. = 107.97244
     e = 0.3516264                    Node  = 231.14275 2000.0
     q = 2.3704767 AU                 Incl. =  11.51911
       a =  3.6560353 AU   n = 0.14099006   P =   6.99 years

* Finding Charts

* Magnitudes Graph

        m1 = 7.0 + 5 log d + 20 log r

---------------------------------------------------------------------

The orbital elements are printed on CBET 1772.
The charts are made with StellaNavigator Ver.2.0 for Windows (AstroArts / ASCII).
The magnitudes graphs are made with Comet for Windows.

---------------------------------------------------------------------

Copyright(C) Seiichi Yoshida (comet@aerith.net). All rights reserved.